Kokomo, IN

4:28 AM EST on February 10, 2016 (GMT -0500)
Kokomo Municipal

Weather History for KOKK - December, 2013

Change the Weather History Date:

Thursday, December 26, 2013

  Actual Average (KGUS) Record (KGUS)
Temperature  
Mean Temperature 27 °F -  
Max Temperature 35 °F 30 °F 55 °F (2008)
Min Temperature 19 °F 20 °F 5 °F (2004)
Degree Days  
Heating Degree Days 38    
Moisture  
Dew Point 21 °F    
Average Humidity 72    
Maximum Humidity 93    
Minimum Humidity 56    
Precipitation  
Precipitation 0.00 in - - ()
Sea Level Pressure  
Sea Level Pressure 30.24 in    
Wind  
Wind Speed 16 mph (WSW)    
Max Wind Speed 23 mph    
Max Gust Speed 31 mph    
Visibility 10 miles    
Events      
Averages and records for this station are not official NWS values.
T = Trace of Precipitation, MM = Missing Value Source: NWS Daily Summary

Daily Weather History Graph

Daily Weather History Graph

Search for Another Location

Airport or City:

Trip Planner

Search our weather history database for the weather conditions in past years. The results will help you decide how hot, cold, wet, or windy it might be!

Date:

Astronomy

Dec. 26, 2013 Rise Set
Actual Time 7:06 AM CST 4:23 PM CST
Civil Twilight 6:35 AM CST 4:54 PM CST
Nautical Twilight 6:01 AM CST 5:28 PM CST
Astronomical Twilight 5:28 AM CST 6:02 PM CST
Moon 12:33 AM CST (12/26) 11:59 AM CST (12/26)
Length of Visible Light 10h 18m
Length of Day
9h 17m
Last Quarter, 38% of the Moon is Illuminated
Dec 26
Last Quarter
Jan 1
New
Jan 7
First Quarter
Jan 15
Full
Jan 23
Last Quarter

Hourly Weather History & Observations

Time (CST) Temp. Windchill Dew Point Humidity Pressure Visibility Wind Dir Wind Speed Gust Speed Precip Events Conditions
12:15 AM 28.4 °F 16.6 °F 26.6 °F 93% 30.10 in 2.5 mi WSW 16.1 mph - N/A   Overcast
12:35 AM 30.2 °F 16.8 °F 26.6 °F 86% 30.10 in 4.0 mi West 23.0 mph 31.1 mph N/A   Overcast
12:55 AM 28.4 °F 15.4 °F 26.6 °F 93% 30.10 in 4.0 mi West 19.6 mph 24.2 mph N/A   Overcast
1:15 AM 28.4 °F 14.4 °F 24.8 °F 86% 30.11 in 6.0 mi West 23.0 mph 29.9 mph N/A   Overcast
1:35 AM 28.4 °F 15.8 °F 24.8 °F 86% 30.12 in 9.0 mi West 18.4 mph 24.2 mph N/A   Overcast
1:55 AM 28.4 °F 15.8 °F 24.8 °F 86% 30.13 in 8.0 mi West 18.4 mph 25.3 mph N/A   Overcast
2:15 AM 28.4 °F 15.8 °F 24.8 °F 86% 30.14 in 7.0 mi West 18.4 mph - N/A   Overcast
2:35 AM 28.4 °F 16.2 °F 24.8 °F 86% 30.14 in 7.0 mi West 17.3 mph 23.0 mph N/A   Overcast
2:55 AM 28.4 °F 15.4 °F 24.8 °F 86% 30.14 in 8.0 mi West 19.6 mph 27.6 mph N/A   Overcast
3:15 AM 26.6 °F 13.4 °F 24.8 °F 93% 30.15 in 10.0 mi West 18.4 mph 21.9 mph N/A   Overcast
3:35 AM 26.6 °F 13.8 °F 23.0 °F 86% 30.16 in 10.0 mi West 17.3 mph - N/A   Overcast
3:55 AM 26.6 °F 12.4 °F 23.0 °F 86% 30.16 in 10.0 mi West 21.9 mph - N/A   Overcast
4:15 AM 26.6 °F 13.1 °F 21.2 °F 80% 30.17 in 10.0 mi West 19.6 mph 28.8 mph N/A   Mostly Cloudy
4:35 AM 24.8 °F 11.5 °F 19.4 °F 80% 30.17 in 10.0 mi West 17.3 mph 23.0 mph N/A   Partly Cloudy
4:55 AM 24.8 °F 11.5 °F 17.6 °F 74% 30.18 in 10.0 mi West 17.3 mph 21.9 mph N/A   Clear
5:15 AM 24.8 °F 11.9 °F 15.8 °F 69% 30.19 in 10.0 mi West 16.1 mph 25.3 mph N/A   Clear
5:35 AM 23.0 °F 11.1 °F 15.8 °F 74% 30.20 in 10.0 mi West 12.7 mph - N/A   Clear
5:55 AM 23.0 °F 9.2 °F 15.8 °F 74% 30.20 in 10.0 mi West 17.3 mph 24.2 mph N/A   Clear
6:15 AM 21.2 °F 6.8 °F 12.2 °F 68% 30.22 in 10.0 mi West 17.3 mph 25.3 mph N/A   Clear
6:35 AM 19.4 °F 5.5 °F 14.0 °F 80% 30.22 in 10.0 mi West 15.0 mph - N/A   Clear
6:55 AM 19.4 °F 4.5 °F 12.2 °F 74% 30.23 in 10.0 mi West 17.3 mph - N/A   Clear
7:15 AM 19.4 °F 6.0 °F 12.2 °F 74% 30.23 in 10.0 mi West 13.8 mph - N/A   Clear
7:35 AM 19.4 °F 5.5 °F 14.0 °F 80% 30.25 in 10.0 mi West 15.0 mph - N/A   Clear
7:55 AM 19.4 °F 7.2 °F 14.0 °F 80% 30.26 in 10.0 mi West 11.5 mph - N/A   Clear
8:15 AM 19.4 °F 6.6 °F 15.8 °F 86% 30.27 in 10.0 mi West 12.7 mph - N/A   Clear
8:35 AM 21.2 °F 8.3 °F 15.8 °F 80% 30.28 in 10.0 mi West 13.8 mph 19.6 mph N/A   Clear
8:55 AM 21.2 °F 8.9 °F 15.8 °F 80% 30.29 in 10.0 mi West 12.7 mph 19.6 mph N/A   Clear
9:15 AM 23.0 °F 10.1 °F 15.8 °F 74% 30.30 in 10.0 mi West 15.0 mph - N/A   Clear
9:35 AM 24.8 °F 12.4 °F 15.8 °F 69% 30.32 in 10.0 mi West 15.0 mph - N/A   Clear
9:55 AM 24.8 °F 12.4 °F 15.8 °F 69% 30.32 in 10.0 mi West 15.0 mph - N/A   Clear
10:15 AM 26.6 °F 14.7 °F 17.6 °F 69% 30.32 in 10.0 mi West 15.0 mph - N/A   Scattered Clouds
10:35 AM 26.6 °F 15.7 °F 17.6 °F 69% 30.31 in 10.0 mi West 12.7 mph - N/A   Overcast
10:55 AM 28.4 °F 17.5 °F 17.6 °F 64% 30.31 in 10.0 mi WSW 13.8 mph - N/A   Mostly Cloudy
11:15 AM 28.4 °F 17.5 °F 17.6 °F 64% 30.31 in 10.0 mi West 13.8 mph - N/A   Overcast
11:35 AM 30.2 °F 21.3 °F 17.6 °F 60% 30.30 in 10.0 mi West 10.4 mph - N/A   Overcast
11:55 AM 30.2 °F 20.8 °F 19.4 °F 64% 30.30 in 10.0 mi West 11.5 mph - N/A   Scattered Clouds
12:15 PM 32.0 °F 23.0 °F 21.2 °F 64% 30.30 in 10.0 mi West 11.5 mph - N/A   Clear
12:35 PM 32.0 °F 23.6 °F 19.4 °F 60% 30.29 in 10.0 mi West 10.4 mph - N/A   Clear
12:55 PM 32.0 °F 24.2 °F 21.2 °F 64% 30.28 in 10.0 mi West 9.2 mph - N/A   Partly Cloudy
1:15 PM 33.8 °F 25.8 °F 19.4 °F 56% 30.28 in 10.0 mi West 10.4 mph - N/A   Clear
1:35 PM 33.8 °F 25.8 °F 21.2 °F 60% 30.28 in 10.0 mi West 10.4 mph - N/A   Clear
1:55 PM 33.8 °F 27.0 °F 19.4 °F 56% 30.27 in 10.0 mi West 8.1 mph - N/A   Clear
2:15 PM 33.8 °F 25.8 °F 21.2 °F 60% 30.27 in 10.0 mi WSW 10.4 mph - N/A   Clear
2:35 PM 35.6 °F 28.0 °F 21.2 °F 56% 30.27 in 10.0 mi SW 10.4 mph - N/A   Scattered Clouds
2:55 PM 35.6 °F 28.6 °F 21.2 °F 56% 30.27 in 10.0 mi SW 9.2 mph - N/A   Overcast
3:15 PM 33.8 °F 25.3 °F 23.0 °F 65% 30.27 in 10.0 mi SSW 11.5 mph - N/A   Overcast
3:35 PM 33.8 °F 26.4 °F 23.0 °F 65% 30.28 in 10.0 mi SW 9.2 mph - N/A   Overcast
3:55 PM 33.8 °F 23.9 °F 21.2 °F 60% 30.28 in 10.0 mi SSW 15.0 mph - N/A   Overcast
4:15 PM 33.8 °F 25.3 °F 24.8 °F 70% 30.27 in 10.0 mi SSW 11.5 mph - N/A   Overcast
4:35 PM 33.8 °F 25.3 °F 24.8 °F 70% 30.27 in 10.0 mi SSW 11.5 mph - N/A   Overcast
4:55 PM 33.8 °F 26.4 °F 23.0 °F 65% 30.27 in 10.0 mi SSW 9.2 mph - N/A   Overcast
5:15 PM 33.8 °F 26.4 °F 24.8 °F 70% 30.27 in 10.0 mi SSW 9.2 mph - N/A   Partly Cloudy
5:35 PM 33.8 °F 26.4 °F 24.8 °F 70% 30.27 in 10.0 mi South 9.2 mph - N/A   Clear
5:55 PM 33.8 °F 25.8 °F 24.8 °F 70% 30.27 in 10.0 mi South 10.4 mph - N/A   Clear
6:15 PM 33.8 °F 26.4 °F 24.8 °F 70% 30.26 in 10.0 mi South 9.2 mph - N/A   Partly Cloudy
6:35 PM 33.8 °F 26.4 °F 24.8 °F 70% 30.25 in 10.0 mi South 9.2 mph - N/A   Partly Cloudy
6:55 PM 32.0 °F 23.0 °F 24.8 °F 75% 30.25 in 10.0 mi South 11.5 mph - N/A   Partly Cloudy
7:15 PM 33.8 °F 24.8 °F 24.8 °F 70% 30.25 in 10.0 mi South 12.7 mph - N/A   Clear
7:35 PM 33.8 °F 24.3 °F 24.8 °F 70% 30.24 in 10.0 mi SSW 13.8 mph - N/A   Partly Cloudy
7:55 PM 33.8 °F 25.3 °F 24.8 °F 70% 30.24 in 10.0 mi SSW 11.5 mph - N/A   Mostly Cloudy
8:15 PM 33.8 °F 24.8 °F 24.8 °F 70% 30.24 in 10.0 mi SSW 12.7 mph 19.6 mph N/A   Overcast
8:35 PM 33.8 °F 23.9 °F 23.0 °F 65% 30.24 in 10.0 mi SSW 15.0 mph 20.7 mph N/A   Overcast
8:55 PM 33.8 °F 24.3 °F 24.8 °F 70% 30.24 in 10.0 mi SSW 13.8 mph - N/A   Overcast
9:15 PM 33.8 °F 24.3 °F 23.0 °F 65% 30.25 in 10.0 mi SW 13.8 mph - N/A   Overcast
9:35 PM 33.8 °F 23.9 °F 24.8 °F 70% 30.25 in 10.0 mi SW 15.0 mph 20.7 mph N/A   Overcast
9:55 PM 33.8 °F 23.9 °F 23.0 °F 65% 30.25 in 10.0 mi SW 15.0 mph - N/A   Overcast
10:15 PM 33.8 °F 24.8 °F 24.8 °F 70% 30.26 in 10.0 mi SW 12.7 mph 18.4 mph N/A   Overcast
10:35 PM 33.8 °F 24.3 °F 23.0 °F 65% 30.26 in 10.0 mi SW 13.8 mph - N/A   Overcast
10:55 PM 33.8 °F 24.8 °F 24.8 °F 70% 30.26 in 10.0 mi SW 12.7 mph - N/A   Overcast
11:15 PM 33.8 °F 22.8 °F 24.8 °F 70% 30.25 in 10.0 mi SW 18.4 mph - N/A   Overcast
11:35 PM 33.8 °F 23.5 °F 23.0 °F 65% 30.25 in 10.0 mi SW 16.1 mph - N/A   Overcast
11:55 PM 35.6 °F 25.5 °F 24.8 °F 65% 30.24 in 10.0 mi SW 17.3 mph 24.2 mph N/A   Overcast